SQ2FRB-13 Weather Reports


Display with metric or nautical units.
time (UTC)temp
F
wind
direction
speed
MPH
gust
MPH
rain 1hr
in
rain 24hr
in
rain mn
in
humidity
%
barometer
mb
20180921073041 74 172 3.0 6.0 0.00 0.00 0.00 62 1014.0
20180921072541 74 202 3.0 8.0 0.00 0.00 0.00 62 1014.0
20180921072041 73 187 3.0 6.0 0.00 0.00 0.00 63 1014.0
20180921071541 73 139 3.0 5.0 0.00 0.00 0.00 64 1014.1
20180921071041 72 146 3.0 5.0 0.00 0.00 0.00 64 1014.1
20180921070541 72 170 2.0 5.0 0.00 0.00 0.00 65 1014.1
20180921070042 72 149 2.0 4.0 0.00 0.00 0.00 65 1014.1
20180921065541 71 123 2.0 4.0 0.00 0.00 0.00 67 1014.0
20180921065041 71 148 2.0 4.0 0.00 0.00 0.00 67 1014.0
20180921064541 71 162 2.0 4.0 0.00 0.00 0.00 67 1014.0
20180921064041 70 164 2.0 4.0 0.00 0.00 0.00 68 1014.0
20180921063541 70 170 2.0 5.0 0.00 0.00 0.00 68 1013.9
20180921063041 70 187 2.0 4.0 0.00 0.00 0.00 69 1013.9
20180921062541 69 167 2.0 3.0 0.00 0.00 0.00 69 1013.9
20180921062041 69 124 1.0 3.0 0.00 0.00 0.00 70 1013.9
20180921061541 68 146 1.0 3.0 0.00 0.00 0.00 70 1013.9
20180921061041 68 176 1.0 5.0 0.00 0.00 0.00 71 1013.9
20180921060541 68 154 1.0 5.0 0.00 0.00 0.00 72 1013.9
20180921060043 67 159 1.0 2.0 0.00 0.00 0.00 72 1013.9
20180921060041 67 159 1.0 2.0 0.00 0.00 0.00 72 1013.9
20180921055541 67 146 1.0 2.0 0.00 0.00 0.00 73 1014.0
20180921055041 66 162 1.0 1.0 0.00 0.00 0.00 75 1014.0
20180921054541 66 150 1.0 2.0 0.00 0.00 0.00 75 1014.0
20180921054041 65 150 1.0 2.0 0.00 0.00 0.00 76 1014.0
20180921053541 65 178 1.0 2.0 0.00 0.00 0.00 76 1014.1
20180921053041 65 171 1.0 2.0 0.00 0.00 0.00 77 1014.1
20180921052541 64 163 1.0 2.0 0.00 0.00 0.00 77 1014.1
20180921052041 64 152 1.0 2.0 0.00 0.00 0.00 77 1014.1
20180921051541 64 167 1.0 2.0 0.00 0.00 0.00 77 1014.0
20180921051041 64 155 1.0 2.0 0.00 0.00 0.00 78 1014.0
20180921050541 63 144 1.0 2.0 0.00 0.00 0.00 78 1014.0
20180921050042 63 145 1.0 2.0 0.00 0.00 0.00 78 1014.0
20180921045541 63 135 1.0 2.0 0.00 0.00 0.00 78 1014.1
20180921045041 63 130 1.0 2.0 0.00 0.00 0.00 78 1014.1
20180921044541 63 154 1.0 1.0 0.00 0.00 0.00 78 1014.1
20180921044041 63 167 2.0 2.0 0.00 0.00 0.00 78 1014.1
20180921043541 63 148 2.0 3.0 0.00 0.00 0.00 78 1014.1
20180921043041 63 158 2.0 2.0 0.00 0.00 0.00 78 1014.1
20180921042541 63 148 2.0 3.0 0.00 0.00 0.00 78 1014.1
20180921042041 63 151 2.0 3.0 0.00 0.00 0.00 78 1014.1
20180921041541 63 155 2.0 3.0 0.00 0.00 0.00 78 1014.3
20180921041117 63 158 2.0 2.0 0.00 0.00 0.00 78 1014.3
20180921041041 63 158 2.0 2.0 0.00 0.00 0.00 78 1014.3
20180921040541 63 155 2.0 3.0 0.00 0.00 0.00 78 1014.3
20180921040042 63 149 2.0 3.0 0.00 0.00 0.00 78 1014.3
20180921035541 63 149 2.0 3.0 0.00 0.00 0.00 78 1014.4
20180921035042 63 158 2.0 2.0 0.00 0.00 0.00 79 1014.4
20180921034542 63 161 2.0 3.0 0.00 0.00 0.00 78 1014.4
20180921034041 63 161 1.0 2.0 0.00 0.00 0.00 78 1014.4
20180921033541 63 152 1.0 2.0 0.00 0.00 0.00 78 1014.7
20180921033041 63 151 1.0 2.0 0.00 0.00 0.00 78 1014.7
20180921032541 63 156 1.0 2.0 0.00 0.00 0.00 78 1014.7
20180921032041 63 184 1.0 2.0 0.00 0.00 0.00 77 1014.7
20180921031541 63 163 1.0 2.0 0.00 0.00 0.00 77 1014.8
20180921031041 63 148 2.0 2.0 0.00 0.00 0.00 78 1014.8
20180921030541 63 148 2.0 3.0 0.00 0.00 0.00 79 1014.8
20180921030041 63 151 2.0 3.0 0.00 0.00 0.00 79 1014.8
20180921025541 63 144 2.0 3.0 0.00 0.00 0.00 79 1014.8
20180921025041 63 135 2.0 3.0 0.00 0.00 0.00 78 1014.8
20180921024541 63 135 2.0 3.0 0.00 0.00 0.00 79 1014.8
20180921024041 63 135 2.0 3.0 0.00 0.00 0.00 79 1014.8
20180921023541 64 145 1.0 3.0 0.00 0.00 0.00 78 1014.9
20180921023041 64 158 0.0 2.0 0.00 0.00 0.00 78 1015.0
20180921022541 64 152 0.0 2.0 0.00 0.00 0.00 78 1015.0
20180921022041 63 0.0 0.0 0.00 0.00 0.00 79 1015.0
20180921021541 63 135 0.0 1.0 0.00 0.00 0.00 80 1015.2
20180921021041 63 135 1.0 1.0 0.00 0.00 0.00 80 1015.2
20180921020541 63 135 1.0 2.0 0.00 0.00 0.00 81 1015.2
20180921020043 64 135 1.0 2.0 0.00 0.00 0.00 80 1015.2
20180921020041 64 135 1.0 2.0 0.00 0.00 0.00 80 1015.2
20180921015541 64 135 0.0 1.0 0.00 0.00 0.00 78 1015.1
20180921015041 64 135 0.0 1.0 0.00 0.00 0.00 77 1015.1
20180921014541 64 0.0 0.0 0.00 0.00 0.00 77 1015.1
20180921014041 64 135 0.0 0.0 0.00 0.00 0.00 76 1015.1
20180921013541 64 135 1.0 1.0 0.00 0.00 0.00 76 1015.1
20180921013041 64 142 1.0 2.0 0.00 0.00 0.00 77 1015.1
20180921012541 64 181 2.0 3.0 0.00 0.00 0.00 77 1015.1
20180921012041 64 158 1.0 3.0 0.00 0.00 0.00 79 1015.1
20180921011541 64 142 0.0 2.0 0.00 0.00 0.00 79 1015.3
20180921011041 64 0.0 0.0 0.00 0.00 0.00 78 1015.3
20180921010541 64 0.0 0.0 0.00 0.00 0.00 78 1015.3
20180921010042 64 0.0 0.0 0.00 0.00 0.00 77 1015.3
20180921005541 64 0.0 0.0 0.00 0.00 0.00 76 1015.5
20180921005041 65 0.0 0.0 0.00 0.00 0.00 76 1015.5
20180921004541 65 0.0 0.0 0.00 0.00 0.00 76 1015.5
20180921004041 65 0.0 0.0 0.00 0.00 0.00 76 1015.5
20180921003541 65 0.0 0.0 0.00 0.00 0.00 76 1015.5
20180921003041 65 0.0 0.0 0.00 0.00 0.00 75 1015.5
20180921002541 65 0.0 0.0 0.00 0.00 0.00 75 1015.5
20180921002041 65 0.0 0.0 0.00 0.00 0.00 76 1015.5
20180921001541 65 0.0 0.0 0.00 0.00 0.00 76 1015.6
20180921001041 65 167 0.0 0.0 0.00 0.00 0.00 76 1015.6
20180921000541 65 158 0.0 1.0 0.00 0.00 0.00 76 1015.6
20180921000043 65 158 1.0 1.0 0.00 0.00 0.00 76 1015.6
20180921000041 65 158 1.0 1.0 0.00 0.00 0.00 76 1015.6
20180920235541 65 158 1.0 2.0 0.00 0.00 0.00 77 1015.7
20180920235041 65 158 2.0 2.0 0.00 0.00 0.00 77 1015.8
20180920234541 65 149 2.0 3.0 0.00 0.00 0.00 77 1015.8
20180920234041 65 119 2.0 4.0 0.00 0.00 0.00 76 1015.8
20180920233541 65 153 1.0 3.0 0.00 0.00 0.00 76 1015.9
20180920233041 65 142 1.0 3.0 0.00 0.00 0.00 77 1015.9
20180920232541 65 142 1.0 3.0 0.00 0.00 0.00 77 1015.9
20180920232041 65 158 0.0 2.0 0.00 0.00 0.00 78 1015.9
20180920231541 65 177 0.0 1.0 0.00 0.00 0.00 78 1016.0
20180920231041 65 169 0.0 0.0 0.00 0.00 0.00 76 1016.1
20180920230542 65 202 0.0 0.0 0.00 0.00 0.00 76 1016.1
20180920230200 65 0.0 0.0 0.00 0.00 0.00 76 1016.1
20180920230042 65 0.0 0.0 0.00 0.00 0.00 76 1016.1
20180920225541 65 0.0 0.0 0.00 0.00 0.00 77 1016.5
20180920225041 65 0.0 0.0 0.00 0.00 0.00 77 1016.5
20180920224541 65 0.0 0.0 0.00 0.00 0.00 77 1016.5
20180920224041 65 0.0 0.0 0.00 0.00 0.00 77 1016.5
20180920223541 65 135 0.0 0.0 0.00 0.00 0.00 76 1016.4
20180920223041 66 151 0.0 0.0 0.00 0.00 0.00 76 1016.4
20180920222541 66 159 0.0 2.0 0.00 0.00 0.00 76 1016.4
20180920222041 66 171 0.0 2.0 0.00 0.00 0.00 77 1016.4
20180920221542 65 180 0.0 0.0 0.00 0.00 0.00 79 1016.7
20180920221042 65 0.0 0.0 0.00 0.00 0.00 81 1016.8
20180920220541 65 0.0 0.0 0.00 0.00 0.00 81 1016.8
20180920220041 65 0.0 0.0 0.00 0.00 0.00 80 1016.8
20180920215541 65 0.0 0.0 0.00 0.00 0.00 80 1017.0
20180920215041 66 0.0 0.0 0.00 0.00 0.00 79 1017.1
20180920214541 66 0.0 0.0 0.00 0.00 0.00 78 1017.1
20180920214041 66 0.0 0.0 0.00 0.00 0.00 77 1017.1
20180920213541 66 0.0 0.0 0.00 0.00 0.00 76 1017.2
20180920213041 67 0.0 0.0 0.00 0.00 0.00 76 1017.2
20180920212541 67 0.0 0.0 0.00 0.00 0.00 75 1017.2
20180920212041 67 0.0 0.0 0.00 0.00 0.00 75 1017.2
20180920211541 67 225 0.0 0.0 0.00 0.00 0.00 74 1017.5
20180920211041 67 225 0.0 0.0 0.00 0.00 0.00 75 1017.6
20180920210541 67 225 0.0 1.0 0.00 0.00 0.00 75 1017.6
20180920210042 67 225 0.0 0.0 0.00 0.00 0.00 74 1017.6
20180920205541 67 195 0.0 0.0 0.00 0.00 0.00 75 1017.7
20180920205041 66 167 0.0 1.0 0.00 0.00 0.00 77 1017.7
20180920204541 66 0.0 0.0 0.00 0.00 0.00 79 1017.7
20180920204041 66 135 0.0 0.0 0.00 0.00 0.00 80 1017.7
20180920203541 67 135 0.0 0.0 0.00 0.00 0.00 79 1018.0
20180920203041 67 135 0.0 1.0 0.00 0.00 0.00 78 1018.0
20180920202541 67 0.0 0.0 0.00 0.00 0.00 78 1018.0
20180920202041 67 0.0 0.0 0.00 0.00 0.00 77 1018.0
20180920201541 68 0.0 0.0 0.00 0.00 0.00 76 1018.2
20180920201041 68 0.0 0.0 0.00 0.00 0.00 74 1018.2
20180920200541 69 0.0 0.0 0.00 0.00 0.00 73 1018.2
20180920200042 69 0.0 0.0 0.00 0.00 0.00 72 1018.2
20180920195541 69 0.0 0.0 0.00 0.00 0.00 72 1018.1
20180920195041 69 0.0 0.0 0.00 0.00 0.00 72 1018.1
20180920194541 69 0.0 0.0 0.00 0.00 0.00 72 1018.1
20180920194041 69 0.0 0.0 0.00 0.00 0.00 71 1018.1
20180920193541 69 0.0 0.0 0.00 0.00 0.00 71 1018.1
20180920193041 69 0.0 0.0 0.00 0.00 0.00 71 1018.1
20180920192541 70 0.0 0.0 0.00 0.00 0.00 71 1018.1
20180920192041 70 0.0 0.0 0.00 0.00 0.00 71 1018.1
20180920191541 70 0.0 0.0 0.00 0.00 0.00 71 1018.1
20180920191041 71 0.0 0.0 0.00 0.00 0.00 70 1018.1
20180920190541 71 135 0.0 0.0 0.00 0.00 0.00 69 1018.1
20180920190042 71 135 0.0 0.0 0.00 0.00 0.00 68 1018.1
20180920185542 71 135 0.0 0.0 0.00 0.00 0.00 68 1017.9
20180920185041 71 135 0.0 0.0 0.00 0.00 0.00 69 1017.9
20180920184541 72 135 0.0 1.0 0.00 0.00 0.00 67 1017.9
20180920184041 72 135 0.0 1.0 0.00 0.00 0.00 65 1017.9
20180920183541 72 0.0 0.0 0.00 0.00 0.00 65 1017.9
20180920183041 72 135 0.0 0.0 0.00 0.00 0.00 66 1017.9
20180920182541 72 135 0.0 0.0 0.00 0.00 0.00 65 1017.9
20180920182041 73 135 0.0 1.0 0.00 0.00 0.00 64 1017.9
20180920181541 73 135 0.0 1.0 0.00 0.00 0.00 62 1018.0
20180920181041 73 135 1.0 1.0 0.00 0.00 0.00 62 1018.1
20180920180541 74 135 1.0 1.0 0.00 0.00 0.00 62 1018.1
20180920180042 74 135 0.0 1.0 0.00 0.00 0.00 61 1018.1
20180920175541 75 135 0.0 1.0 0.00 0.00 0.00 60 1018.0
20180920175041 75 135 0.0 1.0 0.00 0.00 0.00 58 1018.0
20180920174541 76 0.0 0.0 0.00 0.00 0.00 58 1018.0
20180920174041 77 0.0 0.0 0.00 0.00 0.00 56 1018.0
20180920173541 77 135 0.0 0.0 0.00 0.00 0.00 55 1018.0
20180920173041 77 135 0.0 0.0 0.00 0.00 0.00 56 1018.0
20180920172541 78 135 0.0 1.0 0.00 0.00 0.00 56 1018.0
20180920172041 79 209 0.0 1.0 0.00 0.00 0.00 53 1018.0
20180920171541 79 225 1.0 2.0 0.00 0.00 0.00 52 1017.7
20180920171041 79 225 2.0 2.0 0.00 0.00 0.00 51 1017.7
20180920170541 80 199 1.0 3.0 0.00 0.00 0.00 51 1017.7
20180920170041 80 225 1.0 2.0 0.00 0.00 0.00 50 1017.7
20180920165541 80 190 2.0 2.0 0.00 0.00 0.00 49 1017.8
20180920165041 81 201 2.0 3.0 0.00 0.00 0.00 49 1017.8
20180920164541 81 206 2.0 3.0 0.00 0.00 0.00 49 1017.8
20180920164041 81 216 2.0 4.0 0.00 0.00 0.00 48 1017.8
20180920163541 82 171 2.0 3.0 0.00 0.00 0.00 47 1017.8
20180920163041 82 213 2.0 4.0 0.00 0.00 0.00 46 1017.8
20180920162541 83 203 3.0 4.0 0.00 0.00 0.00 46 1017.8
20180920162041 83 225 3.0 4.0 0.00 0.00 0.00 45 1017.8
20180920161541 83 234 3.0 6.0 0.00 0.00 0.00 44 1017.9
20180920161041 84 232 3.0 4.0 0.00 0.00 0.00 44 1017.9
20180920160541 84 255 3.0 4.0 0.00 0.00 0.00 44 1017.9
20180920160042 84 202 3.0 4.0 0.00 0.00 0.00 43 1017.9
20180920155541 84 234 3.0 6.0 0.00 0.00 0.00 43 1017.5
20180920155041 84 224 4.0 6.0 0.00 0.00 0.00 43 1017.4
20180920154541 84 240 5.0 7.0 0.00 0.00 0.00 43 1017.4
20180920154041 84 218 6.0 7.0 0.00 0.00 0.00 43 1017.4
20180920153541 84 247 6.0 6.0 0.00 0.00 0.00 43 1017.7
20180920153041 83 260 6.0 8.0 0.00 0.00 0.00 43 1017.7
20180920152541 83 250 8.0 10.0 0.00 0.00 0.00 43 1017.7
20180920152041 83 240 8.0 13.0 0.00 0.00 0.00 43 1017.7
20180920151541 84 239 9.0 13.0 0.00 0.00 0.00 42 1017.8
20180920151041 84 222 10.0 10.0 0.00 0.00 0.00 42 1017.8
20180920150541 84 265 10.0 11.0 0.00 0.00 0.00 42 1017.8
20180920150042 84 273 11.0 14.0 0.00 0.00 0.00 42 1017.8
20180920145541 84 262 12.0 14.0 0.00 0.00 0.00 42 1017.7
20180920145041 84 255 12.0 19.0 0.00 0.00 0.00 42 1017.6
20180920144541 85 218 9.0 19.0 0.00 0.00 0.00 41 1017.6
20180920144041 85 248 8.0 14.0 0.00 0.00 0.00 42 1017.6
20180920143541 85 301 8.0 13.0 0.00 0.00 0.00 41 1017.8
20180920143041 85 255 8.0 15.0 0.00 0.00 0.00 42 1017.8
20180920142541 85 257 7.0 15.0 0.00 0.00 0.00 42 1017.8
20180920142041 85 240 7.0 13.0 0.00 0.00 0.00 41 1017.8
20180920141541 85 249 7.0 13.0 0.00 0.00 0.00 41 1018.1
20180920141041 85 258 8.0 10.0 0.00 0.00 0.00 41 1018.2
20180920140542 85 242 8.0 10.0 0.00 0.00 0.00 41 1018.2
20180920140052 86 254 7.0 16.0 0.00 0.00 0.00 41 1018.2
20180920135541 85 254 8.0 10.0 0.00 0.00 0.00 41 1018.2
20180920135041 85 240 8.0 10.0 0.00 0.00 0.00 42 1018.2
20180920134541 85 284 9.0 11.0 0.00 0.00 0.00 42 1018.2
20180920134041 85 239 9.0 11.0 0.00 0.00 0.00 40 1018.2
20180920133541 85 248 10.0 13.0 0.00 0.00 0.00 40 1018.1
20180920133041 86 248 10.0 16.0 0.00 0.00 0.00 39 1018.1
20180920132541 86 261 10.0 20.0 0.00 0.00 0.00 39 1018.1
20180920132041 86 276 11.0 11.0 0.00 0.00 0.00 40 1018.1
20180920131541 87 259 8.0 17.0 0.00 0.00 0.00 39 1018.2
20180920131041 87 278 7.0 14.0 0.00 0.00 0.00 40 1018.3
20180920130541 86 235 8.0 15.0 0.00 0.00 0.00 41 1018.3
20180920130042 86 225 10.0 15.0 0.00 0.00 0.00 40 1018.3
20180920125541 86 239 10.0 19.0 0.00 0.00 0.00 40 1018.6
20180920125041 86 248 9.0 19.0 0.00 0.00 0.00 40 1018.6
20180920124541 86 265 9.0 12.0 0.00 0.00 0.00 41 1018.6
20180920124041 86 258 8.0 12.0 0.00 0.00 0.00 41 1018.6
20180920123541 86 215 8.0 15.0 0.00 0.00 0.00 41 1018.9
20180920123041 86 249 8.0 12.0 0.00 0.00 0.00 41 1018.9
20180920122541 86 243 8.0 11.0 0.00 0.00 0.00 41 1018.9
20180920122041 86 231 8.0 11.0 0.00 0.00 0.00 41 1018.9
20180920121541 86 239 7.0 11.0 0.00 0.00 0.00 40 1018.8
20180920121041 86 248 8.0 11.0 0.00 0.00 0.00 41 1018.8
20180920120541 86 232 8.0 11.0 0.00 0.00 0.00 41 1018.8
20180920120042 86 263 8.0 15.0 0.00 0.00 0.00 41 1018.8
20180920115041 86 194 8.0 13.0 0.00 0.00 0.00 41 1018.8
20180920114541 86 220 8.0 10.0 0.00 0.00 0.00 40 1018.8
20180920114041 86 254 8.0 17.0 0.00 0.00 0.00 40 1018.8
20180920113542 86 194 8.0 17.0 0.00 0.00 0.00 41 1018.9
20180920113042 86 193 9.0 11.0 0.00 0.00 0.00 41 1018.9
20180920112542 86 238 8.0 13.0 0.00 0.00 0.00 41 1018.9
20180920112042 86 220 7.0 10.0 0.00 0.00 0.00 41 1018.9
20180920111541 86 182 8.0 9.0 0.00 0.00 0.00 41 1018.9
20180920095041 82 164 3.0 6.0 0.00 0.00 0.00 49 1020.1
20180920094541 81 159 3.0 6.0 0.00 0.00 0.00 49 1020.1
20180920094041 81 180 3.0 6.0 0.00 0.00 0.00 50 1020.1
20180920092541 80 166 3.0 6.0 0.00 0.00 0.00 52 1020.1
20180920092041 79 191 3.0 5.0 0.00 0.00 0.00 53 1020.1
20180920091541 79 148 2.0 4.0 0.00 0.00 0.00 54 1020.3
20180920091041 78 175 2.0 3.0 0.00 0.00 0.00 55 1020.3
20180920090541 78 154 2.0 3.0 0.00 0.00 0.00 56 1020.3
20180920090042 77 171 2.0 3.0 0.00 0.00 0.00 57 1020.3
20180920085541 77 172 2.0 5.0 0.00 0.00 0.00 57 1020.2
20180920085041 77 171 2.0 5.0 0.00 0.00 0.00 56 1020.1
20180920084541 77 161 2.0 3.0 0.00 0.00 0.00 56 1020.1
20180920084041 77 125 2.0 3.0 0.00 0.00 0.00 57 1020.1
20180920083541 76 207 2.0 3.0 0.00 0.00 0.00 59 1020.4
20180920083041 75 181 2.0 4.0 0.00 0.00 0.00 60 1020.4
20180920082541 75 170 2.0 3.0 0.00 0.00 0.00 61 1020.4
20180920082044 74 164 2.0 3.0 0.00 0.00 0.00 62 1020.4
20180920081541 74 164 1.0 2.0 0.00 0.00 0.00 63 1020.2
20180920081041 73 173 2.0 3.0 0.00 0.00 0.00 64 1020.2
20180920080542 73 172 2.0 3.0 0.00 0.00 0.00 64 1020.2
20180920080042 73 173 3.0 4.0 0.00 0.00 0.00 64 1020.2
20180920075541 73 226 2.0 5.0 0.00 0.00 0.00 64 1020.1
20180920075041 73 258 1.0 5.0 0.00 0.00 0.00 64 1020.1
20180920074613 73 223 1.0 2.0 0.00 0.00 0.00 65 1020.1
20180920074541 73 223 1.0 2.0 0.00 0.00 0.00 65 1020.1
20180920074041 72 185 2.0 2.0 0.00 0.00 0.00 66 1020.1
20180920073541 71 275 2.0 3.0 0.00 0.00 0.00 67 1020.1